• In Romania
  • List of Countries
  • For 7 days
  • Water Temperature
  • Satellite Maps
  • Weather Map
  • Weather Widgets
  • user-avatar
    Login

    Hourly Weather Ghent

    Today, 22 February, Thursday

    Time Temperature Precipitation Wind Pressure Humidity
    00:00 -4°C° 0 mm 5 mps 767 mmHg 76%
    01:00 -3°C° 0 mm 4 mps 767 mmHg 77%
    02:00 -3°C° 0 mm 4 mps 766 mmHg 78%
    03:00 -3°C° 0 mm 4 mps 766 mmHg 79%
    04:00 -3°C° 0 mm 4 mps 766 mmHg 78%
    05:00 -4°C° 0 mm 5 mps 766 mmHg 78%
    06:00 -4°C° 0 mm 5 mps 766 mmHg 77%
    07:00 -2°C° 0 mm 5 mps 766 mmHg 71%
    08:00 -2°C° 0 mm 5 mps 766 mmHg 65%
    09:00 -2°C° 0 mm 6 mps 766 mmHg 60%
    10:00 -1°C° 0 mm 6 mps 766 mmHg 54%
    11:00 +1°C° 0 mm 6 mps 766 mmHg 49%
    12:00 +2°C° 0 mm 6 mps 766 mmHg 44%
    13:00 +3°C° 0 mm 6 mps 766 mmHg 44%
    14:00 +3°C° 0 mm 6 mps 765 mmHg 45%
    15:00 +3°C° 0 mm 6 mps 765 mmHg 45%
    16:00 +2°C° 0 mm 6 mps 765 mmHg 50%
    17:00 0°C° 0 mm 5 mps 765 mmHg 55%
    18:00 -1°C° 0 mm 5 mps 765 mmHg 59%
    19:00 -1°C° 0 mm 5 mps 765 mmHg 61%
    20:00 -1°C° 0 mm 5 mps 766 mmHg 63%
    21:00 -3°C° 0 mm 6 mps 766 mmHg 65%
    22:00 -2°C° 0 mm 5 mps 766 mmHg 66%
    23:00 -4°C° 0 mm 5 mps 766 mmHg 67%

    Tomorrow, 23 February, Friday

    Time Temperature Precipitation Wind Pressure Humidity
    00:00 -4°C° 0 mm 5 mps 766 mmHg 68%
    01:00 -4°C° 0 mm 5 mps 766 mmHg 68%
    02:00 -4°C° 0 mm 5 mps 766 mmHg 68%
    03:00 -4°C° 0 mm 5 mps 765 mmHg 67%
    04:00 -5°C° 0 mm 5 mps 765 mmHg 66%
    05:00 -5°C° 0 mm 5 mps 765 mmHg 65%
    06:00 -5°C° 0 mm 5 mps 765 mmHg 64%
    07:00 -4°C° 0 mm 6 mps 765 mmHg 59%
    08:00 -3°C° 0 mm 7 mps 765 mmHg 53%
    09:00 -2°C° 0 mm 7 mps 765 mmHg 48%
    10:00 -1°C° 0 mm 7 mps 765 mmHg 45%
    11:00 0°C° 0 mm 7 mps 765 mmHg 42%
    12:00 +2°C° 0 mm 7 mps 764 mmHg 39%
    13:00 +2°C° 0 mm 7 mps 764 mmHg 39%
    14:00 +2°C° 0 mm 7 mps 764 mmHg 38%
    15:00 +2°C° 0 mm 7 mps 763 mmHg 38%
    16:00 0°C° 0 mm 7 mps 763 mmHg 40%
    17:00 -1°C° 0 mm 6 mps 763 mmHg 42%
    18:00 -3°C° 0 mm 6 mps 763 mmHg 44%
    19:00 -3°C° 0 mm 6 mps 764 mmHg 44%
    20:00 -3°C° 0 mm 6 mps 764 mmHg 43%
    21:00 -4°C° 0 mm 6 mps 764 mmHg 43%
    22:00 -4°C° 0 mm 6 mps 764 mmHg 42%
    23:00 -4°C° 0 mm 6 mps 764 mmHg 42%

    Day after tomorrow, 24 February, Saturday

    Time Temperature Precipitation Wind Pressure Humidity
    00:00 -5°C° 0 mm 6 mps 764 mmHg 41%
    01:00 -5°C° 0 mm 6 mps 764 mmHg 41%
    02:00 -5°C° 0 mm 6 mps 764 mmHg 41%
    03:00 -5°C° 0 mm 6 mps 763 mmHg 42%
    04:00 -5°C° 0 mm 6 mps 763 mmHg 41%
    05:00 -6°C° 0 mm 7 mps 763 mmHg 41%
    06:00 -6°C° 0 mm 7 mps 763 mmHg 40%
    07:00 -4°C° 0 mm 7 mps 764 mmHg 38%
    08:00 -4°C° 0 mm 8 mps 764 mmHg 35%
    09:00 -4°C° 0 mm 8 mps 764 mmHg 32%
    10:00 -1°C° 0 mm 8 mps 764 mmHg 31%
    11:00 0°C° 0 mm 8 mps 764 mmHg 29%
    12:00 +1°C° 0 mm 8 mps 764 mmHg 28%
    13:00 +1°C° 0 mm 8 mps 764 mmHg 28%
    14:00 +2°C° 0 mm 8 mps 763 mmHg 29%
    15:00 +2°C° 0 mm 8 mps 763 mmHg 30%
    16:00 +1°C° 0 mm 8 mps 764 mmHg 35%
    17:00 0°C° 0 mm 8 mps 764 mmHg 40%
    18:00 -1°C° 0 mm 7 mps 764 mmHg 45%
    19:00 -2°C° 0 mm 7 mps 765 mmHg 47%
    20:00 -2°C° 0 mm 7 mps 765 mmHg 48%
    21:00 -4°C° 0 mm 8 mps 766 mmHg 50%
    22:00 -3°C° 0 mm 7 mps 766 mmHg 49%
    23:00 -4°C° 0 mm 7 mps 766 mmHg 48%

    25 February, Sunday

    Time Temperature Precipitation Wind Pressure Humidity
    00:00 -4°C° 0 mm 7 mps 766 mmHg 46%
    01:00 -6°C° 0 mm 7 mps 766 mmHg 46%
    02:00 -6°C° 0 mm 7 mps 767 mmHg 45%
    03:00 -6°C° 0 mm 7 mps 767 mmHg 44%
    04:00 -6°C° 0 mm 7 mps 767 mmHg 44%
    05:00 -6°C° 0 mm 7 mps 767 mmHg 45%
    06:00 -7°C° 0 mm 7 mps 767 mmHg 45%
    07:00 -6°C° 0 mm 8 mps 767 mmHg 42%
    08:00 -6°C° 0 mm 8 mps 768 mmHg 39%
    09:00 -5°C° 0 mm 8 mps 768 mmHg 36%
    10:00 -4°C° 0 mm 8 mps 768 mmHg 33%
    11:00 -2°C° 0 mm 8 mps 768 mmHg 30%
    12:00 -1°C° 0 mm 8 mps 768 mmHg 27%
    13:00 -1°C° 0 mm 8 mps 768 mmHg 26%
    14:00 -1°C° 0 mm 8 mps 767 mmHg 25%
    15:00 -1°C° 0 mm 8 mps 767 mmHg 23%
    16:00 -2°C° 0 mm 8 mps 768 mmHg 25%
    17:00 -3°C° 0 mm 7 mps 768 mmHg 27%
    18:00 -6°C° 0 mm 7 mps 768 mmHg 29%
    19:00 -6°C° 0 mm 7 mps 769 mmHg 32%
    20:00 -6°C° 0 mm 7 mps 769 mmHg 35%
    21:00 -7°C° 0 mm 7 mps 769 mmHg 38%
    22:00 -7°C° 0 mm 7 mps 769 mmHg 40%
    23:00 -7°C° 0 mm 7 mps 769 mmHg 42%

    26 February, Monday

    Time Temperature Precipitation Wind Pressure Humidity
    00:00 -6°C° 0 mm 6 mps 769 mmHg 44%
    01:00 -6°C° 0 mm 6 mps 769 mmHg 45%
    02:00 -6°C° 0 mm 6 mps 769 mmHg 47%
    03:00 -6°C° 0 mm 6 mps 769 mmHg 48%
    04:00 -8°C° 0 mm 6 mps 769 mmHg 48%
    05:00 -8°C° 0 mm 7 mps 769 mmHg 47%
    06:00 -8°C° 0 mm 7 mps 769 mmHg 47%
    07:00 -7°C° 0 mm 7 mps 769 mmHg 45%
    08:00 -7°C° 0 mm 8 mps 769 mmHg 43%
    09:00 -6°C° 0 mm 8 mps 769 mmHg 41%
    10:00 -6°C° 0 mm 8 mps 769 mmHg 39%
    11:00 -5°C° 0 mm 8 mps 768 mmHg 37%
    12:00 -5°C° 0 mm 8 mps 768 mmHg 34%
    13:00 -5°C° 0 mm 8 mps 768 mmHg 34%
    14:00 -5°C° 0 mm 8 mps 767 mmHg 34%
    15:00 -5°C° 0 mm 8 mps 767 mmHg 34%
    16:00 -4°C° 0 mm 7 mps 767 mmHg 37%
    17:00 -5°C° 0 mm 6 mps 766 mmHg 40%
    18:00 -6°C° 0 mm 5 mps 766 mmHg 43%
    19:00 -6°C° 0 mm 5 mps 766 mmHg 44%
    20:00 -6°C° 0 mm 5 mps 766 mmHg 45%
    21:00 -7°C° 0 mm 5 mps 766 mmHg 46%
    22:00 -7°C° 0 mm 5 mps 766 mmHg 47%
    23:00 -7°C° 0 mm 5 mps 766 mmHg 48%

    27 February, Tuesday

    Time Temperature Precipitation Wind Pressure Humidity
    00:00 -7°C° 0 mm 5 mps 766 mmHg 48%
    01:00 -7°C° 0 mm 5 mps 765 mmHg 48%
    02:00 -7°C° 0 mm 4 mps 765 mmHg 49%
    03:00 -8°C° 0 mm 4 mps 765 mmHg 49%
    04:00 -8°C° 0 mm 4 mps 765 mmHg 49%
    05:00 -8°C° 0 mm 4 mps 765 mmHg 50%
    06:00 -8°C° 0 mm 4 mps 764 mmHg 51%
    07:00 -8°C° 0 mm 5 mps 764 mmHg 47%
    08:00 -7°C° 0 mm 5 mps 764 mmHg 43%
    09:00 -7°C° 0 mm 5 mps 764 mmHg 39%
    10:00 -6°C° 0 mm 5 mps 764 mmHg 35%
    11:00 -5°C° 0 mm 5 mps 764 mmHg 31%
    12:00 -4°C° 0 mm 5 mps 764 mmHg 26%
    13:00 -4°C° 0 mm 5 mps 764 mmHg 26%
    14:00 -4°C° 0 mm 5 mps 763 mmHg 25%
    15:00 -2°C° 0 mm 5 mps 763 mmHg 24%
    16:00 -3°C° 0 mm 4 mps 763 mmHg 28%
    17:00 -4°C° 0 mm 3 mps 764 mmHg 31%
    18:00 -5°C° 0 mm 3 mps 764 mmHg 34%
    19:00 -5°C° 0 mm 3 mps 764 mmHg 36%
    20:00 -4°C° 0 mm 2 mps 764 mmHg 37%
    21:00 -5°C° 0 mm 2 mps 764 mmHg 39%
    22:00 -5°C° 0 mm 2 mps 764 mmHg 41%
    23:00 -5°C° 0 mm 2 mps 765 mmHg 43%
    Show more